Content
SEND FEEDBACK

Daily
Averages
Monthly
Summary
United States of America

AUBURN, CALIFORNIA


Home > North America > United States > California
Elevation: 1279 feet     Latitude: 38 53N     Longitude: 121 04W

WEATHER
 
SELECT A DAY
Number of Records: 300,119;   Date Range: 8/19/02 - 11/21/14
 
SHARE

PRINT THIS DATA

[ ← Previous Day ]
WEATHER ALMANAC - JUNE 26, 2013
[ Next Day → ]
[ °C ]   °F
We're sorry. There is no daily almanac available for Auburn, California on June 26, 2013.
WEATHER BY HOUR - JUNE 26, 2013
[ °C ]   °F
Local TimeTemperatureDewpointHumidityBarometerVisibilityWind DirectionWind SpeedGust SpeedPrecipitationEventsConditions
12:35 AM64.4 °F62.6 °F94 %30.01 in10.0 miSE (140°)3.5 mphOvercast
12:55 AM64.4 °F62.6 °F94 %30.01 in10.0 miEast (90°)3.5 mphOvercast
1:15 AM64.4 °F62.6 °F94 %30.01 in10.0 miESE (120°)3.5 mphOvercast
1:35 AM64.4 °F62.6 °F94 %30.01 in10.0 miSE (130°)4.6 mphOvercast
1:55 AM64.4 °F62.6 °F94 %30.00 in10.0 miESE (120°)3.5 mphOvercast
2:15 AM64.4 °F62.6 °F94 %30.01 in10.0 miSE (130°)4.6 mphOvercast
2:35 AM64.4 °F62.6 °F94 %30.01 in10.0 miSE (130°)4.6 mphMostly Cloudy
2:55 AM64.4 °F62.6 °F94 %30.01 in10.0 miESE (120°)5.8 mphMostly Cloudy
3:15 AM64.4 °F62.6 °F94 %30.00 in10.0 miSE (130°)5.8 mphOvercast
3:35 AM64.4 °F62.6 °F94 %30.00 in10.0 miESE (120°)4.6 mphScattered Clouds
3:55 AM64.4 °F62.6 °F94 %30.00 in10.0 miSE (130°)4.6 mphScattered Clouds
4:15 AM64.4 °F62.6 °F94 %30.01 in10.0 miESE (110°)3.5 mphClear
4:35 AM64.4 °F64.4 °F100 %30.01 in10.0 miESE (120°)4.6 mphClear
4:55 AM64.4 °F64.4 °F100 %30.01 in10.0 miESE (120°)5.8 mphClear
5:15 AM62.6 °F62.6 °F100 %30.01 in10.0 miESE (110°)4.6 mphClear
5:35 AM62.6 °F62.6 °F100 %30.02 in10.0 miESE (120°)5.8 mphClear
5:55 AM64.4 °F62.6 °F94 %30.02 in10.0 miESE (120°)3.5 mphClear
6:15 AM64.4 °F62.6 °F94 %30.03 in10.0 miCalmClear
6:35 AM64.4 °F64.4 °F100 %30.03 in10.0 miCalmClear
6:55 AM64.4 °F64.4 °F100 %30.04 in10.0 miEast (100°)3.5 mphClear
7:15 AM66.2 °F64.4 °F94 %30.04 in10.0 miCalmClear
7:55 AM68.0 °F64.4 °F88 %30.06 in10.0 miCalmClear
8:15 AM68.0 °F62.6 °F83 %30.06 in10.0 miESE (120°)3.5 mphClear
8:35 AM69.8 °F62.6 °F78 %30.06 in10.0 miSE (140°)3.5 mphClear
8:55 AM69.8 °F62.6 °F78 %30.07 in10.0 miCalmClear
9:15 AM69.8 °F62.6 °F78 %30.07 in10.0 miSSW (210°)4.6 mphClear
9:35 AM71.6 °F62.6 °F73 %30.07 in10.0 miSSW (210°)4.6 mphClear
9:55 AM71.6 °F62.6 °F73 %30.06 in10.0 miSouth (180°)5.8 mphClear
10:15 AM73.4 °F64.4 °F73 %30.07 in10.0 miSW (230°)3.5 mphClear
10:35 AM73.4 °F64.4 °F73 %30.07 in10.0 miCalmClear
10:55 AM75.2 °F64.4 °F69 %30.07 in10.0 miSSW (210°)4.6 mphClear
11:15 AM75.2 °F64.4 °F69 %30.07 in10.0 miSSW (210°)5.8 mphClear
11:35 AM77.0 °F62.6 °F61 %30.07 in10.0 miSSW (210°)6.9 mphClear
11:55 AM78.8 °F62.6 °F57 %30.07 in10.0 miSSW (200°)6.9 mphClear
12:15 PM78.8 °F62.6 °F57 %30.07 in10.0 miSSE (150°)5.8 mphClear
12:35 PM80.6 °F62.6 °F54 %30.07 in10.0 miWSW (240°)8.1 mphClear
12:55 PM80.6 °F60.8 °F51 %30.08 in10.0 miSW (220°)8.1 mphClear
1:15 PM80.6 °F60.8 °F51 %30.08 in10.0 miSSW (210°)8.1 mphClear
1:35 PM82.4 °F60.8 °F48 %30.07 in10.0 miSouth (190°)9.2 mphClear
1:55 PM82.4 °F62.6 °F51 %30.07 in10.0 miWSW (250°)6.9 mphClear
2:15 PM82.4 °F62.6 °F51 %30.07 in10.0 miCalmClear
2:35 PM82.4 °F62.6 °F51 %30.06 in10.0 miCalmClear
2:55 PM82.4 °F62.6 °F51 %30.06 in10.0 miSW (230°)5.8 mphClear
3:15 PM82.4 °F60.8 °F48 %30.06 in10.0 miWSW (240°)8.1 mphClear
3:35 PM84.2 °F60.8 °F45 %30.05 in10.0 miSW (220°)6.9 mphClear
3:55 PM84.2 °F60.8 °F45 %30.05 in10.0 miSSE (160°)6.9 mphClear
4:15 PM84.2 °F60.8 °F45 %30.04 in10.0 miSSW (210°)4.6 mphClear
4:35 PM84.2 °F60.8 °F45 %30.04 in10.0 miSSW (200°)3.5 mphClear
4:55 PM84.2 °F60.8 °F45 %30.04 in10.0 miWSW (250°)4.6 mphClear
5:15 PM84.2 °F60.8 °F45 %30.04 in10.0 miCalmClear
5:35 PM84.2 °F60.8 °F45 %30.03 in10.0 miSW (220°)3.5 mphClear
5:55 PM84.2 °F60.8 °F45 %30.03 in10.0 miSSW (200°)4.6 mphClear
6:15 PM84.2 °F60.8 °F45 %30.03 in10.0 miSouth (190°)5.8 mphClear
6:35 PM82.4 °F60.8 °F48 %30.03 in10.0 miSouth (170°)3.5 mphClear
6:55 PM82.4 °F60.8 °F48 %30.03 in10.0 miWSW (250°)5.8 mphClear
7:15 PM82.4 °F60.8 °F48 %30.03 in10.0 miWSW (250°)4.6 mphClear
7:35 PM82.4 °F60.8 °F48 %30.03 in10.0 miWest (270°)5.8 mphClear
7:55 PM80.6 °F60.8 °F51 %30.03 in10.0 miWest (280°)4.6 mphClear
8:15 PM78.8 °F59.0 °F51 %30.03 in10.0 miWNW (300°)4.6 mphClear
8:35 PM77.0 °F57.2 °F50 %30.03 in10.0 miCalmClear
8:55 PM71.6 °F62.6 °F73 %30.03 in10.0 miCalmClear
9:15 PM69.8 °F60.8 °F73 %30.04 in10.0 miCalmClear
9:35 PM68.0 °F62.6 °F83 %30.05 in10.0 miCalmClear
9:55 PM69.8 °F62.6 °F78 %30.05 in10.0 miCalmClear
10:15 PM69.8 °F60.8 °F73 %30.06 in10.0 miCalmClear
10:35 PM69.8 °F60.8 °F73 %30.06 in10.0 miCalmClear
10:55 PM68.0 °F60.8 °F78 %30.06 in10.0 miCalmClear
11:15 PM69.8 °F59.0 °F68 %30.06 in10.0 miEast (100°)3.5 mphClear
11:35 PM68.0 °F62.6 °F83 %30.06 in10.0 miCalmClear
11:55 PM69.8 °F62.6 °F78 %30.07 in10.0 miESE (110°)5.8 mphClear
Hourly data recorded from KAUN, located miles away from Auburn, California







STORIES FROM OUR PARTNERS